This is the latest recevied weather packets stored in our database for station/object N0KWA. If no packets are shown the sender has not sent any weather packets the latest 10 day(s).
| Time | Temp. | Humidity | Pressure | Rain* | Wind** | Luminosity | Snow |
|---|---|---|---|---|---|---|---|
| 1778083122 | 25° C | 99% | 1015.9 hPa | 0 mm | - | 7 W/m² | - |
| 1778082818 | 25° C | 99% | 1015.9 hPa | 0 mm | - | 5 W/m² | - |
| 1778081691 | 25° C | 99% | 1015.9 hPa | 0 mm | - | 13 W/m² | - |
| 1778081388 | 25° C | 99% | 1015.8 hPa | 0 mm | - | 9 W/m² | - |
| 1778081085 | 25° C | 99% | 1015.6 hPa | 0 mm | - | 10 W/m² | - |
| 1778080784 | 25° C | 99% | 1015.6 hPa | 0 mm | - | 16 W/m² | - |
| 1778080480 | 25° C | 99% | 1015.8 hPa | 0 mm | - | 18 W/m² | - |
| 1778080178 | 25° C | 99% | 1015.6 hPa | 0 mm | - | 20 W/m² | - |
| 1778079874 | 24.44° C | 99% | 1015.5 hPa | 0 mm | - | 20 W/m² | - |
| 1778079571 | 24.44° C | 99% | 1015.6 hPa | 0 mm | - | 29 W/m² | - |
| 1778079267 | 24.44° C | 99% | 1015.6 hPa | 0 mm | - | 19 W/m² | - |
| 1778078965 | 24.44° C | 99% | 1015.6 hPa | 0 mm | - | 16 W/m² | - |
| 1778078661 | 23.89° C | 99% | 1015.8 hPa | 0 mm | - | 18 W/m² | - |
| 1778078360 | 23.89° C | 99% | 1015.8 hPa | 0 mm | - | 16 W/m² | - |
| 1778078056 | 23.89° C | 99% | 1015.6 hPa | 0 mm | - | 13 W/m² | - |
| 1778077755 | 23.89° C | 99% | 1015.6 hPa | 0 mm | - | 8 W/m² | - |
| 1778077453 | 23.89° C | 99% | 1015.4 hPa | 0 mm | - | 11 W/m² | - |
| 1778077150 | 23.89° C | 99% | 1015.4 hPa | 0 mm | - | 10 W/m² | - |
| 1778076848 | 23.89° C | 99% | 1015.5 hPa | 0 mm | - | 7 W/m² | - |
| 1778076546 | 23.89° C | 99% | 1015.5 hPa | 0 mm | - | 6 W/m² | - |
| 1778076243 | 23.89° C | 99% | 1015.4 hPa | 0 mm | - | 12 W/m² | - |
| 1778075940 | 23.89° C | 99% | 1015.3 hPa | 0 mm | - | 16 W/m² | - |
| 1778075636 | 23.89° C | 99% | 1015.1 hPa | 0 mm | - | 12 W/m² | - |
| 1778075333 | 23.33° C | 99% | 1014.9 hPa | 0 mm | - | 10 W/m² | - |
| 1778075029 | 23.33° C | 99% | 1015 hPa | 0 mm | - | 10 W/m² | - |
* Rain latest hour (hover to see other rain measurements)
** Current wind speed in m/s (hover to see current wind gust speed)